Location: T�bingen+AIT
(48.5342°N, 9.0700°E)
Time: 15:09:12
(UTC+01:00)

ARGOS - Pass Details

Date: 14 September 2017
Orbit: 819 x 835 km, 98.6° (Epoch: 18 November)

Event Time Altitude Azimuth Distance (km) Brightness Sun altitude
Exits shadow 21:21:34 27° 97° (E) 1,546 4.0 -17.2°
Maximum altitude 21:23:16 33° 63° (ENE) 1,368 4.0 -17.5°
Drops below altitude 10° 21:28:04 10° 1° (N) 2,452 5.9 -18.2°
Sets 21:30:37 0° 353° (N) 3,392 6.9 -18.6°
